Weather Roundup
Issued by NWS Chicago, IL

Home | Current Version | Previous Version | Text Only | Print | Product List | Glossary On
Versions: 1 2 3 4 5 6 7 8 9 10 11 12 13 14 15 16 17 18 19 20 21 22 23 24 25 26 27 28 29 30 31 32 33 34 35 36 37 38 39 40 41 42 43 44 45 46 47 48 49 50
000
NZUS59 KLOT 310721
HRRLOT

CHICAGO AREA WEATHER ROUNDUP
NATIONAL WEATHER SERVICE CHICAGO/ROMEOVILLE IL
200 AM CDT FRI JUL 31 2015

NOTE: "FAIR" INDICATES FEW OR NO CLOUDS BELOW 12,000 FEET WITH NO
SIGNIFICANT WEATHER AND/OR OBSTRUCTIONS TO VISIBILITY.

* THESE STATIONS ARE NOT UNDER NWS QUALITY CONTROL. THEY ALSO MAY NOT
  REPORT WEATHER SUCH AS PRECIPITATION OR FOG.

ILZ005-006-012>014-019>023-310800-
NORTHEAST ILLINOIS

CITY           SKY/WX    TMP DP  RH WIND       PRES   REMARKS
OHARE            N/A     72  58  61 W10       30.03R
MIDWAY         CLEAR     75  57  53 W8        30.03R
AURORA         CLEAR     62  59  90 W3        30.06R
LANSING*       CLEAR     67  61  83 W3        30.04R
JOLIET*        CLEAR     69  64  82 CALM      30.06R
WAUKEGAN       CLEAR     68  57  68 CALM      30.01S
DUPAGE AIRPORT CLEAR     70  58  65 W6        30.04R
WHEELING       CLEAR     72  57  59 W6        30.04R
KANKAKEE*      CLEAR     68  65  91 W3        30.06S
MORRIS*        CLEAR     65  62  90 W6        30.05S
LEWIS AIRPORT* CLEAR     67  60  79 W6        30.05S
NORTHERLY IS     N/A     76  56  49 W7          N/A
$$

WIZ051-052-058>065-066-070>072-310800-
SOUTHEAST WISCONSIN

CITY           SKY/WX    TMP DP  RH WIND       PRES   REMARKS
MILWAUKEE      CLEAR     73  55  53 W6        29.99F
KENOSHA*       CLEAR     65  57  75 W8        30.02S
RACINE*        CLEAR     69  56  62 W7        30.02S
BURLINGTON     CLEAR     64  55  72 W3        30.02S
WAUKESHA       CLEAR     66  54  63 W9        30.02S
WEST BEND      CLEAR     68  54  60 CALM      29.99S
$$

INZ001>003-010>013-019-020-310800-
NORTHWEST INDIANA

CITY           SKY/WX    TMP DP  RH WIND       PRES   REMARKS
GARY*          CLEAR     67  63  88 CALM      30.04R
MICHIGAN CITY* NOT AVBL
RENSSELAER*    NOT AVBL
VALPARAISO     CLEAR     67  61  81 W7        30.04R
$$

LMZ740>746-310800-
SOUTHERN LAKE MICHIGAN

STATION/POSITION TIME  SKY/WX   TEMP WIND        PRES    VSBY
                                AIR  DIR/SP/G
                 (UTC)          (F)  (DEG/KT/KT) (MB)    (MI)
HARRISON CRIB    0700            76  290/ 13/ 17   N/A
BURNHAM HARBOR   0700            76  260/  7/ 11   N/A
CALUMET HARBOR   0600            76  280/  4/  7   N/A
BURNS HARBOR     0600            76  240/  9/ 12 1016.9R
MICHIGAN CITY    0600            75  220/ 14/ 15   N/A
$$

ABBREVIATIONS USED IN REMARKS
   TC - TEMPERATURE IN CELSIUS
  WCI - WIND CHILL INDEX
   HX - HEAT INDEX
  VSB - VISIBILITY
$$



USA.gov is the U.S. government's official web portal to all federal, state and local government web resources and services.